User: anonymous   Login
Location: ???????
(60.4260°N, 46.9069°E)
Time: 17:31:07
(UTC+00:00)
Language:

Meteor 1-27 Rocket - Orbit

View from above orbital plane
View from above orbital plane
View from above satellite
View from above satellite

Ground track
Ground track

The orbit data is extracted from the following two-line orbital elements,

1  9904U 77024B   20195.79980895 -.00000162 +00000-0 -10372-3 0  9991
2  9904 081.2632 125.0729 0056336 047.9156 312.6784 14.06891990220425
Epoch (UTC): 13 July 2020 19:11:43
Eccentricity: 0.0056336
inclination: 81.2632°
perigee height: 829 km
apogee height: 911 km
right ascension of ascending node: 125.0729°
argument of perigee: 47.9156°
revolutions per day: 14.06891990
mean anomaly at epoch: 312.6784°
orbit number at epoch: 22042

The dashed part of the orbit path shows where the satellite is in the earth's shadow,  

DLR